Regional Weather Roundup
Issued by NWS

Home | Current Version | Previous Version | Text Only | Print | Product List | Glossary On
Versions: 1 2 3 4 5 6 7 8 9 10 11 12 13 14 15 16 17 18 19 20 21 22 23 24 25 26 27 28 29 30 31 32 33 34 35 36 37 38 39 40 41 42 43 44 45 46 47 48 49 50
000
ASUS43 KMPX 291310
RWRMN
WEATHER ROUNDUP FOR MINNESOTA
NATIONAL WEATHER SERVICE TWIN CITIES/CHANHASSEN MN
800 AM CDT THU SEP 29 2016


NOTE: "FAIR" INDICATES FEW OR NO CLOUDS BELOW 12,000 FEET WITH NO
SIGNIFICANT WEATHER AND/OR OBSTRUCTIONS TO VISIBILITY. N/A MEANS
CURRENT SKY AND/OR WEATHER CONDITIONS ARE NOT AVAILABLE.

MNZ060>063-068>070-291400-
   Twin Cities Metro

CITY           SKY/WX    TMP DP  RH WIND       PRES   REMARKS
TWIN CITIES    MOCLDY    49  46  90 NE7       30.46R
ST PAUL        MOCLDY    49  47  93 VRB6      30.48R FOG
CRYSTAL        MOCLDY    47  44  90 NE5       30.45R
BLAINE         MOCLDY    48  48 100 N5        30.46R
LAKEVILLE      PTCLDY    46  46 100 CALM      30.46R
EDEN PRAIRIE   CLEAR     50  47  89 N5        30.45R
LAKEVILLE      PTCLDY    46  46 100 CALM      30.46R
SOUTH ST PAUL  CLOUDY    49  48  97 N6        30.47R
LAKE ELMO      CLOUDY    46  46 100 N5        30.47R
$$
MNZ001>005-007-008-013>017-022>024-027-028-291400-
   Northwest Minnesota

CITY           SKY/WX    TMP DP  RH WIND       PRES   REMARKS
BEMIDJI        CLOUDY    49  48  97 CALM      30.50R
HALLOCK        MOCLDY    48  46  93 SE5       30.47S
ROSEAU         CLOUDY    52  46  82 CALM      30.49S
WARROAD        CLOUDY    52  46  82 CALM      30.50R
THIEF RVR FALL CLOUDY    51  47  86 E5        30.49S
CROOKSTON      CLOUDY    52  48  87 E3        30.49R
FOSSTON        CLOUDY    43  39  87 E3        30.50R
DETROIT LAKES  CLOUDY    46  45  93 CALM      30.50R
MOORHEAD       PTCLDY    45  43  93 CALM      30.49R
PARK RAPIDS    CLOUDY    50  46  86 CALM      30.49R
MAHNOMEN       FAIR      41  40  95 E5        30.49R
$$
MNZ006-009>011-018-025>026-291400-
   North Central Minnesota

CITY           SKY/WX    TMP DP  RH WIND       PRES   REMARKS
BAUDETTE       CLOUDY    50  48  93 CALM      30.51R
FLAG ISLAND    CLOUDY    55  46  71 S8        30.49R
INTL FALLS     CLOUDY    52  49  89 CALM      30.51R
WASKISH        CLOUDY    50  48  93 CALM      30.51R
BIG FORK       CLOUDY    52  50  93 CALM      30.51R
GRAND RAPIDS   CLOUDY    51  51 100 CALM      30.51R
ORR            CLOUDY    52  48  87 CALM      30.49S
COOK           CLOUDY    52  52 100 CALM      30.51S
WALKER         CLOUDY    49  48  97 CALM      30.49S
$$
MNZ012-019>021-037-291400-
   Northeast Minnesota

CITY           SKY/WX    TMP DP  RH WIND       PRES   REMARKS
DULUTH         CLOUDY    53  51  93 E9        30.49R
ELY            CLOUDY    52  48  87 CALM      30.51R
HIBBING        CLOUDY    51  50  96 CALM      30.50R
EVELETH        CLOUDY    53  50  91 NE3       30.51R
DULUTH HARBOR  CLOUDY    55  54  94 NE14      30.49S
TWO HARBORS    CLOUDY    55  52  88 CALM      30.48S
SILVER BAY     CLOUDY    54  50  87 N5        30.49R
GRAND MARAIS     N/A     55  47  74 N7        30.49R
G MARAIS ARPRT CLOUDY    48  43  81 N3        30.51S
$$
MNZ029>031-032-039>041-046>048-054>057-064-291400-
   West Central Minnesota

CITY           SKY/WX    TMP DP  RH WIND       PRES   REMARKS
FERGUS FALLS   CLOUDY    48  46  93 E3        30.50S
WHEATON        FOG       43  43 100 CALM      30.50R VSB 3/4
MORRIS         CLEAR     45  43  93 NE3       30.47R
ALEXANDRIA     CLOUDY    47  46  97 N3        30.49R
ELBOW LAKE     CLOUDY    50  47  88 SE3       30.49R
WADENA         CLOUDY    50  46  87 CALM      30.48S
GLENWOOD       CLEAR     46  45  93 N5        30.48R
APPLETON       CLEAR     43  39  87 W3        30.47R
ORTONVILLE     CLOUDY    45  43  93 CALM      30.48R
MADISON        CLEAR     46  46 100 CALM      30.47R
WILLMAR        FAIR      45  45 100 CALM      30.48R
$$
MNZ033>034-036-042>043-049>051-058-059-291400-
   Central Minnesota

CITY           SKY/WX    TMP DP  RH WIND       PRES   REMARKS
ST CLOUD       CLEAR     48  46  93 NE3       30.47R
SAUK CENTRE    FAIR      42  42  99 CALM      30.48S
PAYNESVILLE    CLEAR     40  40 100 CALM      30.48R
AITKIN         CLOUDY    54  48  82 CALM      30.47S
PINE RIVER     CLOUDY    52  52 100 CALM      30.51R FOG
BRAINERD       CLOUDY    52  50  93 CALM      30.49R
STAPLES        CLOUDY    52  48  87 CALM      30.49R
LONG PRAIRIE   MOCLDY    48  46  93 CALM      30.49R
LITTLE FALLS   MOCLDY    45  43  93 CALM      30.48S
LITCHFIELD     CLEAR     46  46 100 CALM      30.47R
BUFFALO        CLEAR     47  45  93 NE3       30.48R
MAPLE LAKE     CLEAR     47  46  98 CALM      30.48R
HUTCHINSON     CLEAR     50  48  93 NE7       30.47R
$$
MNZ037-044-045-052-053-291400-
   East Central Minnesota

CITY           SKY/WX    TMP DP  RH WIND       PRES   REMARKS
PRINCETON      CLEAR     46  45  93 CALM      30.47R
MORA           MOCLDY    50  50 100 CALM      30.49S
CAMBRIDGE      CLEAR     45  43  93 CALM      30.46R
RUSH CITY      FLURRIES  46  46 100 NE3       30.48R
MOOSE LAKE     CLOUDY    50  48  93 CALM      30.47R
HINCKLEY       PTSUNNY   50  50 100 NE3       30.48R
CLOQUET        CLOUDY    52  48  87 E5        30.48S
MCGREGOR       CLOUDY    52  50  93 CALM      30.49R
$$
MNZ071>073-080-081-089-090-097-098-291400-
   Southwest Minnesota

CITY           SKY/WX    TMP DP  RH WIND       PRES   REMARKS
MONTEVIDEO     CLEAR     45  45 100 CALM      30.49R
GRANITE FALLS  CLOUDY    40  40  98 W5        30.48R
CANBY          CLOUDY    40  39  97 NW3       30.48R
MARSHALL       CLOUDY    39  38  96 W6        30.48R
REDWOOD FALLS  CLEAR     48  44  86 N3        30.46R
OLIVIA         CLEAR     43  41  93 NE3       30.45S
PIPESTONE      CLOUDY    45  43  93 NE3       30.46R
WINDOM         CLEAR     45  43  93 N5        30.45R
WORTHINGTON    CLEAR     42  42 100 N6        30.46R
JACKSON        CLEAR     43  41  93 NW3       30.45R FOG
TRACY          CLOUDY    44  44  99 CALM      30.47R
$$
MNZ065>067-074>077-082>085-091>093-291400-
   South Central Minnesota

CITY           SKY/WX    TMP DP  RH WIND       PRES   REMARKS
MANKATO        MOCLDY    47  46  97 NE6       30.45R FOG
NEW ULM        CLEAR     46  46 100 NE3       30.45R
ST JAMES       CLEAR     45  45 100 CALM      30.46R
FAIRMONT       PTCLDY    46  45  96 CALM      30.44R
GLENCOE        CLEAR     49  49 100 N5        30.45R
FARIBAULT      MOCLDY    46  46 100 N3        30.45R FOG
OWATONNA       FOG       48  46  93 N3        30.44R VSB 1/2
WASECA         CLEAR     46  45  93 NE6       30.45R
ALBERT LEA     CLOUDY    52  50  93 NE8       30.43R
$$
MNZ078>079-086>088-094>096-291400-
   Southeast Minnesota

CITY           SKY/WX    TMP DP  RH WIND       PRES   REMARKS
ROCHESTER      FOG       50  49  96 N9        30.42S VSB 1/4
RED WING       CLOUDY    48  46  93 E6        30.44R FOG
STANTON        CLOUDY    48  47  95 N3        30.44R
DODGE CENTER   FOG       45  45 100 N5        30.43R VSB<1/4
WINONA         CLEAR     50  50 100 NW3       30.42R
AUSTIN         CLOUDY    50  48  93 N7        30.42R
PRESTON        CLEAR     47  46  96 N7        30.41R
$$
ABBREVIATIONS USED IN REMARKS
   TC - TEMPERATURES IN CELSIUS
  WCI - WIND CHILL INDEX
   HX - HEAT INDEX
  VSB - VISIBILITY
$$




USA.gov is the U.S. government's official web portal to all federal, state and local government web resources and services.